| time (UTC) | temp F | wind direction | speed MPH | gust MPH | rain 1hr in | rain 24hr in | rain mn in | humidity % | barometer mb |
| 20260507172851 | 64 | 243 | 2.0 | 7.0 | 0.00 | 0.00 | 0.00 | 36 | 1014.3 |
| 20260507172351 | 64 | 248 | 1.0 | 5.0 | 0.00 | 0.00 | 0.00 | 36 | 1014.4 |
| 20260507171852 | 64 | 246 | 1.0 | 5.0 | 0.00 | 0.00 | 0.00 | 38 | 1014.3 |
| 20260507171352 | 63 | 246 | 2.0 | 6.0 | 0.00 | 0.00 | 0.00 | 38 | 1014.5 |
| 20260507170852 | 63 | 244 | 2.0 | 8.0 | 0.00 | 0.00 | 0.00 | 36 | 1014.4 |
| 20260507170353 | 63 | 263 | 2.0 | 8.0 | 0.00 | 0.00 | 0.00 | 37 | 1014.4 |
| 20260507165852 | 62 | 267 | 2.0 | 8.0 | 0.00 | 0.00 | 0.00 | 36 | 1014.4 |
| 20260507165351 | 62 | 248 | 3.0 | 9.0 | 0.00 | 0.00 | 0.00 | 38 | 1014.4 |
| 20260507164848 | 62 | 254 | 3.0 | 9.0 | 0.00 | 0.00 | 0.00 | 38 | 1014.5 |
| 20260507164347 | 62 | 246 | 4.0 | 9.0 | 0.00 | 0.00 | 0.00 | 38 | 1014.5 |
| 20260507163347 | 62 | 243 | 2.0 | 6.0 | 0.00 | 0.00 | 0.00 | 38 | 1014.6 |
| 20260507162847 | 62 | 258 | 2.0 | 10.0 | 0.00 | 0.00 | 0.00 | 40 | 1014.6 |
| 20260507162350 | 61 | 261 | 3.0 | 10.0 | 0.00 | 0.00 | 0.00 | 39 | 1014.6 |
| 20260507161844 | 60 | 249 | 1.0 | 7.0 | 0.00 | 0.00 | 0.00 | 43 | 1014.7 |
| 20260507161343 | 59 | 249 | 1.0 | 5.0 | 0.00 | 0.00 | 0.00 | 46 | 1014.7 |
| 20260507160843 | 58 | 250 | 3.0 | 7.0 | 0.00 | 0.00 | 0.00 | 46 | 1014.7 |
| 20260507160343 | 58 | 265 | 2.0 | 8.0 | 0.00 | 0.00 | 0.00 | 46 | 1014.8 |
| 20260507155844 | 57 | 261 | 2.0 | 8.0 | 0.00 | 0.00 | 0.00 | 46 | 1014.8 |
| 20260507155344 | 56 | 264 | 1.0 | 7.0 | 0.00 | 0.00 | 0.00 | 47 | 1014.7 |
| 20260507154844 | 56 | 213 | 1.0 | 4.0 | 0.00 | 0.00 | 0.00 | 49 | 1014.8 |
| 20260507153340 | 54 | 261 | 2.0 | 8.0 | 0.00 | 0.00 | 0.00 | 49 | 1015.2 |
| 20260507152840 | 53 | 228 | 1.0 | 4.0 | 0.00 | 0.00 | 0.00 | 51 | 1015.2 |
| 20260507152339 | 53 | 228 | 1.0 | 4.0 | 0.00 | 0.00 | 0.00 | 52 | 1015.2 |
| 20260507151840 | 53 | 229 | 1.0 | 4.0 | 0.00 | 0.00 | 0.00 | 52 | 1015.2 |
| 20260507151339 | 52 | 228 | 1.0 | 3.0 | 0.00 | 0.00 | 0.00 | 54 | 1015.2 |
| 20260507145839 | 51 | 220 | 0.0 | 3.0 | 0.00 | 0.00 | 0.00 | 54 | 1015.3 |
| 20260507144337 | 50 | 229 | 1.0 | 4.0 | 0.00 | 0.00 | 0.00 | 55 | 1015.3 |
| 20260507143839 | 49 | 229 | 1.0 | 3.0 | 0.00 | 0.00 | 0.00 | 58 | 1015.3 |
| 20260507143339 | 49 | 229 | 0.0 | 2.0 | 0.00 | 0.00 | 0.00 | 60 | 1015.3 |
| 20260507142838 | 48 | 230 | 0.0 | 2.0 | 0.00 | 0.00 | 0.00 | 61 | 1015.2 |
| 20260507142338 | 48 | 230 | 0.0 | 0.0 | 0.00 | 0.00 | 0.00 | 63 | 1015.2 |
| 20260507141837 | 47 | 230 | 0.0 | 0.0 | 0.00 | 0.00 | 0.00 | 65 | 1015.2 |
| 20260507141335 | 46 | 231 | 0.0 | 0.0 | 0.00 | 0.00 | 0.00 | 66 | 1015.2 |
| 20260507140331 | 45 | 231 | 0.0 | 0.0 | 0.00 | 0.00 | 0.00 | 65 | 1015.3 |
| 20260507135831 | 44 | 231 | 0.0 | 0.0 | 0.00 | 0.00 | 0.00 | 65 | 1015.2 |
| 20260507135332 | 44 | 231 | 0.0 | 0.0 | 0.00 | 0.00 | 0.00 | 66 | 1015.3 |
| 20260507134332 | 43 | 231 | 0.0 | 0.0 | 0.00 | 0.00 | 0.00 | 66 | 1015.3 |
| 20260507133829 | 43 | 231 | 0.0 | 0.0 | 0.00 | 0.00 | 0.00 | 66 | 1015.3 |
| 20260507133331 | 42 | 232 | 0.0 | 0.0 | 0.00 | 0.00 | 0.00 | 67 | 1015.3 |
| 20260507132824 | 41 | 232 | 0.0 | 0.0 | 0.00 | 0.00 | 0.00 | 69 | 1015.2 |
| 20260507132318 | 40 | 232 | 0.0 | 0.0 | 0.00 | 0.00 | 0.00 | 71 | 1015.3 |
| 20260507131812 | 40 | 232 | 0.0 | 0.0 | 0.00 | 0.00 | 0.00 | 71 | 1015.1 |
| 20260507131307 | 40 | 232 | 0.0 | 0.0 | 0.00 | 0.00 | 0.00 | 70 | 1015.1 |
| 20260507130801 | 39 | 232 | 0.0 | 0.0 | 0.00 | 0.00 | 0.00 | 70 | 1015.0 |
| 20260507130255 | 39 | 232 | 0.0 | 2.0 | 0.00 | 0.00 | 0.00 | 70 | 1015.0 |
| 20260507125748 | 38 | 232 | 0.0 | 2.0 | 0.00 | 0.00 | 0.00 | 70 | 1015.0 |
| 20260507125242 | 38 | 232 | 0.0 | 2.0 | 0.00 | 0.00 | 0.00 | 70 | 1015.0 |
| 20260507124230 | 37 | 236 | 0.0 | 0.0 | 0.00 | 0.00 | 0.00 | 71 | 1014.7 |
| 20260507123725 | 37 | 236 | 0.0 | 0.0 | 0.00 | 0.00 | 0.00 | 72 | 1014.7 |
| 20260507123218 | 36 | 236 | 0.0 | 0.0 | 0.00 | 0.00 | 0.00 | 72 | 1014.6 |
| 20260507122713 | 36 | 235 | 0.0 | 0.0 | 0.00 | 0.00 | 0.00 | 72 | 1014.6 |
| 20260507122207 | 36 | 235 | 0.0 | 0.0 | 0.00 | 0.00 | 0.00 | 72 | 1014.6 |
| 20260507121659 | 36 | 235 | 0.0 | 0.0 | 0.00 | 0.00 | 0.00 | 72 | 1014.5 |
| 20260507121153 | 36 | 235 | 0.0 | 0.0 | 0.00 | 0.00 | 0.00 | 72 | 1014.6 |
| 20260507120142 | 36 | 235 | 0.0 | 2.0 | 0.00 | 0.00 | 0.00 | 72 | 1014.7 |
| 20260507115637 | 36 | 235 | 0.0 | 2.0 | 0.00 | 0.00 | 0.00 | 72 | 1014.6 |
| 20260507115131 | 36 | 235 | 0.0 | 2.0 | 0.00 | 0.00 | 0.00 | 72 | 1014.6 |
| 20260507114627 | 36 | 237 | 0.0 | 2.0 | 0.00 | 0.00 | 0.00 | 72 | 1014.6 |
| 20260507114119 | 36 | 237 | 0.0 | 2.0 | 0.00 | 0.00 | 0.00 | 72 | 1014.6 |
| 20260507113613 | 36 | 236 | 0.0 | 3.0 | 0.00 | 0.00 | 0.00 | 72 | 1014.6 |
| 20260507113106 | 36 | 236 | 1.0 | 3.0 | 0.00 | 0.00 | 0.00 | 72 | 1014.5 |
| 20260507112600 | 36 | 236 | 1.0 | 3.0 | 0.00 | 0.00 | 0.00 | 73 | 1014.5 |
| 20260507112054 | 36 | 236 | 1.0 | 4.0 | 0.00 | 0.00 | 0.00 | 73 | 1014.4 |
| 20260507111548 | 36 | 236 | 0.0 | 4.0 | 0.00 | 0.00 | 0.00 | 73 | 1014.5 |
| 20260507110536 | 36 | 236 | 1.0 | 4.0 | 0.00 | 0.00 | 0.00 | 73 | 1014.4 |
| 20260507105524 | 35 | 236 | 0.0 | 3.0 | 0.00 | 0.00 | 0.00 | 73 | 1014.5 |
| 20260507105018 | 35 | 234 | 0.0 | 4.0 | 0.00 | 0.00 | 0.00 | 73 | 1014.6 |
| 20260507104512 | 36 | 233 | 0.0 | 4.0 | 0.00 | 0.00 | 0.00 | 73 | 1014.6 |
| 20260507104006 | 36 | 233 | 0.0 | 0.0 | 0.00 | 0.00 | 0.00 | 73 | 1014.5 |
| 20260507103500 | 36 | 234 | 0.0 | 0.0 | 0.00 | 0.00 | 0.00 | 73 | 1014.5 |
| 20260507102954 | 36 | 234 | 0.0 | 0.0 | 0.00 | 0.00 | 0.00 | 74 | 1014.5 |
| 20260507102448 | 35 | 234 | 0.0 | 0.0 | 0.00 | 0.00 | 0.00 | 74 | 1014.7 |
| 20260507101436 | 35 | 234 | 0.0 | 0.0 | 0.00 | 0.00 | 0.00 | 75 | 1015.0 |
| 20260507100931 | 35 | 234 | 0.0 | 0.0 | 0.00 | 0.00 | 0.00 | 75 | 1014.8 |
| 20260507100424 | 35 | 234 | 0.0 | 0.0 | 0.00 | 0.00 | 0.00 | 76 | 1014.7 |
| 20260507094906 | 35 | 234 | 0.0 | 0.0 | 0.00 | 0.00 | 0.00 | 76 | 1015.1 |
| 20260507094401 | 35 | 233 | 0.0 | 0.0 | 0.00 | 0.00 | 0.00 | 76 | 1015.2 |
| 20260507093855 | 35 | 233 | 0.0 | 0.0 | 0.00 | 0.00 | 0.00 | 76 | 1015.2 |
| 20260507092842 | 35 | 233 | 0.0 | 0.0 | 0.00 | 0.00 | 0.00 | 77 | 1015.1 |
| 20260507092336 | 35 | 233 | 0.0 | 0.0 | 0.00 | 0.00 | 0.00 | 77 | 1015.1 |
| 20260507091325 | 35 | 233 | 0.0 | 0.0 | 0.00 | 0.00 | 0.00 | 78 | 1015.2 |
| 20260507090818 | 35 | 233 | 0.0 | 0.0 | 0.00 | 0.00 | 0.00 | 78 | 1015.2 |
| 20260507085807 | 35 | 233 | 0.0 | 0.0 | 0.00 | 0.00 | 0.00 | 78 | 1015.2 |
| 20260507085301 | 35 | 233 | 0.0 | 2.0 | 0.00 | 0.00 | 0.00 | 79 | 1015.1 |
| 20260507084754 | 35 | 233 | 0.0 | 2.0 | 0.00 | 0.00 | 0.00 | 79 | 1015.0 |
| 20260507084248 | 35 | 233 | 0.0 | 1.0 | 0.00 | 0.00 | 0.00 | 80 | 1015.1 |
| 20260507083742 | 35 | 233 | 0.0 | 3.0 | 0.00 | 0.00 | 0.00 | 80 | 1015.1 |
| 20260507083236 | 35 | 233 | 0.0 | 3.0 | 0.00 | 0.00 | 0.00 | 81 | 1015.0 |
| 20260507082730 | 35 | 238 | 0.0 | 0.0 | 0.00 | 0.00 | 0.00 | 82 | 1015.1 |
| 20260507082224 | 35 | 238 | 0.0 | 0.0 | 0.00 | 0.00 | 0.00 | 82 | 1015.2 |
| 20260507081719 | 35 | 238 | 0.0 | 0.0 | 0.00 | 0.00 | 0.00 | 83 | 1015.3 |
| 20260507081212 | 34 | 238 | 0.0 | 0.0 | 0.00 | 0.00 | 0.00 | 83 | 1015.2 |
| 20260507080200 | 34 | 238 | 0.0 | 0.0 | 0.00 | 0.00 | 0.00 | 83 | 1015.5 |
| 20260507075654 | 34 | 238 | 0.0 | 0.0 | 0.00 | 0.00 | 0.00 | 83 | 1015.5 |
| 20260507074642 | 34 | 238 | 0.0 | 0.0 | 0.00 | 0.00 | 0.00 | 84 | 1015.5 |
| 20260507074134 | 34 | 238 | 0.0 | 0.0 | 0.00 | 0.00 | 0.00 | 84 | 1015.5 |
| 20260507073134 | 35 | 238 | 0.0 | 2.0 | 0.00 | 0.00 | 0.00 | 84 | 1015.9 |
| 20260507072631 | 35 | 238 | 0.0 | 3.0 | 0.00 | 0.00 | 0.00 | 84 | 1015.8 |
| 20260507072130 | 34 | 238 | 1.0 | 4.0 | 0.00 | 0.00 | 0.00 | 84 | 1015.9 |
| 20260507071631 | 34 | 236 | 1.0 | 4.0 | 0.00 | 0.00 | 0.00 | 84 | 1015.8 |
| 20260507070129 | 34 | 239 | 1.0 | 4.0 | 0.00 | 0.00 | 0.00 | 85 | 1016.0 |
| 20260507065638 | 34 | 229 | 1.0 | 3.0 | 0.00 | 0.00 | 0.00 | 85 | 1016.0 |
| 20260507065129 | 34 | 228 | 0.0 | 3.0 | 0.00 | 0.00 | 0.00 | 85 | 1016.0 |
| 20260507064631 | 34 | 228 | 0.0 | 2.0 | 0.00 | 0.00 | 0.00 | 84 | 1016.0 |
| 20260507064125 | 34 | 228 | 0.0 | 3.0 | 0.00 | 0.00 | 0.00 | 85 | 1016.0 |
| 20260507063626 | 34 | 228 | 0.0 | 3.0 | 0.00 | 0.00 | 0.00 | 84 | 1016.0 |
| 20260507060628 | 34 | 227 | 0.0 | 4.0 | 0.00 | 0.00 | 0.00 | 84 | 1016.2 |
| 20260507055620 | 34 | 225 | 0.0 | 0.0 | 0.00 | 0.00 | 0.00 | 83 | 1016.2 |
| 20260507055114 | 34 | 225 | 0.0 | 0.0 | 0.00 | 0.00 | 0.00 | 83 | 1016.2 |
| 20260507053556 | 34 | 225 | 0.0 | 0.0 | 0.00 | 0.00 | 0.00 | 82 | 1016.4 |
| 20260507053049 | 33 | 225 | 0.0 | 0.0 | 0.00 | 0.00 | 0.00 | 82 | 1016.5 |
| 20260507052545 | 33 | 225 | 0.0 | 0.0 | 0.00 | 0.00 | 0.00 | 81 | 1016.6 |
| 20260507052038 | 33 | 225 | 0.0 | 0.0 | 0.00 | 0.00 | 0.00 | 81 | 1016.6 |
| 20260507051532 | 33 | 225 | 0.0 | 0.0 | 0.00 | 0.00 | 0.00 | 80 | 1016.7 |
| 20260507051026 | 33 | 225 | 0.0 | 0.0 | 0.00 | 0.00 | 0.00 | 80 | 1016.7 |
| 20260507050519 | 33 | 225 | 0.0 | 0.0 | 0.00 | 0.00 | 0.00 | 80 | 1016.7 |
| 20260507050014 | 33 | 225 | 0.0 | 0.0 | 0.00 | 0.00 | 0.00 | 80 | 1016.8 |
| 20260507045509 | 33 | 225 | 0.0 | 0.0 | 0.00 | 0.00 | 0.00 | 80 | 1016.8 |
| 20260507045002 | 33 | 225 | 0.0 | 0.0 | 0.00 | 0.00 | 0.00 | 79 | 1016.7 |
| 20260507044455 | 33 | 225 | 0.0 | 0.0 | 0.00 | 0.00 | 0.00 | 79 | 1016.9 |
| 20260507043950 | 34 | 225 | 0.0 | 0.0 | 0.00 | 0.00 | 0.00 | 79 | 1016.9 |
| 20260507043444 | 34 | 225 | 0.0 | 0.0 | 0.00 | 0.00 | 0.00 | 78 | 1016.9 |
| 20260507042938 | 34 | 225 | 0.0 | 0.0 | 0.00 | 0.00 | 0.00 | 78 | 1016.8 |
| 20260507042433 | 34 | 225 | 0.0 | 0.0 | 0.00 | 0.00 | 0.00 | 77 | 1016.8 |
| 20260507041420 | 34 | 225 | 0.0 | 0.0 | 0.00 | 0.00 | 0.00 | 76 | 1016.8 |
| 20260507040914 | 34 | 225 | 0.0 | 0.0 | 0.00 | 0.00 | 0.00 | 76 | 1016.8 |
| 20260507040409 | 35 | 225 | 0.0 | 0.0 | 0.00 | 0.00 | 0.00 | 76 | 1016.9 |
| 20260507035907 | 35 | 225 | 0.0 | 0.0 | 0.00 | 0.00 | 0.00 | 76 | 1017.2 |
| 20260507035408 | 35 | 225 | 0.0 | 0.0 | 0.00 | 0.00 | 0.00 | 76 | 1017.1 |
| 20260507034406 | 35 | 225 | 0.0 | 0.0 | 0.00 | 0.00 | 0.00 | 76 | 1017.1 |
| 20260507033903 | 35 | 225 | 0.0 | 0.0 | 0.00 | 0.00 | 0.00 | 76 | 1017.1 |
| 20260507033404 | 36 | 225 | 0.0 | 0.0 | 0.00 | 0.00 | 0.00 | 76 | 1016.9 |
| 20260507031901 | 36 | 225 | 0.0 | 0.0 | 0.00 | 0.00 | 0.00 | 76 | 1016.9 |
| 20260507030903 | 36 | 225 | 0.0 | 0.0 | 0.00 | 0.00 | 0.00 | 76 | 1016.9 |
| 20260507030400 | 36 | 225 | 0.0 | 0.0 | 0.00 | 0.00 | 0.00 | 75 | 1016.8 |
| 20260507025401 | 37 | 225 | 0.0 | 0.0 | 0.00 | 0.00 | 0.00 | 75 | 1016.8 |
| 20260507024901 | 37 | 225 | 0.0 | 0.0 | 0.00 | 0.00 | 0.00 | 75 | 1016.8 |
| 20260507024401 | 37 | 225 | 0.0 | 0.0 | 0.00 | 0.00 | 0.00 | 74 | 1016.7 |
| 20260507023858 | 37 | 225 | 0.0 | 0.0 | 0.00 | 0.00 | 0.00 | 74 | 1016.7 |
| 20260507022900 | 38 | 225 | 0.0 | 0.0 | 0.00 | 0.00 | 0.00 | 74 | 1016.6 |
| 20260507021900 | 38 | 225 | 0.0 | 0.0 | 0.00 | 0.00 | 0.00 | 73 | 1016.6 |
| 20260507021359 | 38 | 225 | 0.0 | 0.0 | 0.00 | 0.00 | 0.00 | 72 | 1016.6 |
| 20260507020859 | 38 | 225 | 0.0 | 0.0 | 0.00 | 0.00 | 0.00 | 72 | 1016.6 |
| 20260507020400 | 38 | 225 | 0.0 | 0.0 | 0.00 | 0.00 | 0.00 | 72 | 1016.6 |
| 20260507015859 | 39 | 225 | 0.0 | 0.0 | 0.00 | 0.00 | 0.00 | 71 | 1016.5 |
| 20260507015358 | 39 | 225 | 0.0 | 0.0 | 0.00 | 0.00 | 0.00 | 71 | 1016.5 |
| 20260507014859 | 39 | 225 | 0.0 | 0.0 | 0.00 | 0.00 | 0.00 | 71 | 1016.5 |
| 20260507014358 | 39 | 225 | 0.0 | 0.0 | 0.00 | 0.00 | 0.00 | 70 | 1016.5 |
| 20260507013858 | 39 | 225 | 0.0 | 0.0 | 0.00 | 0.00 | 0.00 | 70 | 1016.5 |
| 20260507012858 | 40 | 225 | 0.0 | 0.0 | 0.00 | 0.00 | 0.00 | 69 | 1016.6 |
| 20260507012359 | 40 | 225 | 0.0 | 0.0 | 0.00 | 0.00 | 0.00 | 69 | 1016.6 |
| 20260507011858 | 40 | 225 | 0.0 | 0.0 | 0.00 | 0.00 | 0.00 | 69 | 1016.6 |
| 20260507011400 | 40 | 225 | 0.0 | 0.0 | 0.00 | 0.00 | 0.00 | 68 | 1016.7 |
| 20260507010401 | 40 | 225 | 0.0 | 0.0 | 0.00 | 0.00 | 0.00 | 68 | 1016.7 |
| 20260507005358 | 41 | 225 | 0.0 | 0.0 | 0.00 | 0.00 | 0.00 | 66 | 1016.7 |
| 20260507004859 | 42 | 225 | 0.0 | 0.0 | 0.00 | 0.00 | 0.00 | 66 | 1016.7 |
| 20260507004358 | 42 | 225 | 0.0 | 0.0 | 0.00 | 0.00 | 0.00 | 67 | 1016.8 |
| 20260507003356 | 42 | 225 | 0.0 | 0.0 | 0.00 | 0.00 | 0.00 | 66 | 1016.9 |
| 20260507002856 | 43 | 225 | 0.0 | 0.0 | 0.00 | 0.00 | 0.00 | 64 | 1017.1 |
| 20260507002356 | 43 | 225 | 0.0 | 0.0 | 0.00 | 0.00 | 0.00 | 65 | 1017.2 |
| 20260507001856 | 43 | 225 | 0.0 | 0.0 | 0.00 | 0.00 | 0.00 | 65 | 1017.3 |
| 20260507001354 | 43 | 0 | 0.0 | 0.0 | 0.00 | 0.00 | 0.00 | 66 | 1017.2 |
| 20260507000852 | 43 | 0 | 0.0 | 0.0 | 0.00 | 0.00 | 0.00 | 65 | 1017.3 |
| 20260507000353 | 43 | 225 | 0.0 | 1.0 | 0.00 | 0.00 | 0.00 | 65 | 1017.4 |
| 20260506235847 | 43 | 225 | 0.0 | 2.0 | 0.00 | 0.00 | 0.00 | 65 | 1017.4 |
| 20260506235341 | 43 | 225 | 0.0 | 3.0 | 0.00 | 0.00 | 0.00 | 66 | 1017.5 |
| 20260506234835 | 43 | 225 | 1.0 | 4.0 | 0.00 | 0.00 | 0.00 | 65 | 1017.4 |
| 20260506234329 | 43 | 225 | 0.0 | 4.0 | 0.00 | 0.00 | 0.00 | 65 | 1017.4 |
| 20260506233824 | 43 | 226 | 0.0 | 1.0 | 0.00 | 0.00 | 0.00 | 66 | 1017.4 |
| 20260506233317 | 43 | 226 | 0.0 | 0.0 | 0.00 | 0.00 | 0.00 | 67 | 1017.4 |
| 20260506232306 | 43 | 225 | 1.0 | 4.0 | 0.00 | 0.00 | 0.00 | 68 | 1017.4 |
| 20260506231256 | 42 | 225 | 0.0 | 4.0 | 0.00 | 0.00 | 0.00 | 67 | 1017.4 |
| 20260506230747 | 43 | 225 | 0.0 | 4.0 | 0.00 | 0.00 | 0.00 | 67 | 1017.5 |
| 20260506225735 | 42 | 223 | 0.0 | 2.0 | 0.00 | 0.00 | 0.00 | 71 | 1017.6 |
| 20260506225229 | 42 | 223 | 0.0 | 2.0 | 0.00 | 0.00 | 0.00 | 68 | 1017.6 |
| 20260506224723 | 42 | 221 | 0.0 | 0.0 | 0.00 | 0.00 | 0.00 | 70 | 1017.6 |
| 20260506224218 | 42 | 222 | 0.0 | 2.0 | 0.00 | 0.00 | 0.00 | 71 | 1017.8 |
| 20260506223711 | 41 | 222 | 0.0 | 3.0 | 0.00 | 0.00 | 0.00 | 71 | 1017.8 |
| 20260506223205 | 41 | 221 | 0.0 | 3.0 | 0.00 | 0.00 | 0.00 | 70 | 1017.8 |
| 20260506222659 | 41 | 221 | 0.0 | 0.0 | 0.00 | 0.00 | 0.00 | 69 | 1018.0 |
| 20260506222153 | 42 | 221 | 0.0 | 0.0 | 0.00 | 0.00 | 0.00 | 68 | 1018.0 |
| 20260506221647 | 43 | 221 | 0.0 | 2.0 | 0.00 | 0.00 | 0.00 | 71 | 1018.1 |
| 20260506221141 | 41 | 221 | 0.0 | 3.0 | 0.00 | 0.00 | 0.00 | 71 | 1018.1 |
| 20260506220129 | 40 | 221 | 0.0 | 0.0 | 0.00 | 0.01 | 0.00 | 73 | 1018.2 |
| 20260506215625 | 40 | 221 | 0.0 | 4.0 | 0.00 | 0.01 | 0.00 | 72 | 1018.2 |
| 20260506214614 | 39 | 219 | 0.0 | 4.0 | 0.00 | 0.01 | 0.00 | 73 | 1018.5 |
| 20260506214105 | 40 | 217 | 0.0 | 0.0 | 0.00 | 0.01 | 0.00 | 74 | 1018.5 |
| 20260506213600 | 39 | 216 | 0.0 | 0.0 | 0.00 | 0.01 | 0.00 | 75 | 1018.5 |
| 20260506213053 | 39 | 217 | 0.0 | 0.0 | 0.00 | 0.01 | 0.00 | 76 | 1018.5 |
| 20260506212547 | 40 | 216 | 0.0 | 0.0 | 0.00 | 0.01 | 0.00 | 78 | 1018.5 |
| 20260506212041 | 40 | 216 | 0.0 | 0.0 | 0.00 | 0.01 | 0.00 | 79 | 1018.5 |
| 20260506211030 | 40 | 215 | 0.0 | 3.0 | 0.00 | 0.01 | 0.00 | 79 | 1018.6 |
| 20260506210524 | 40 | 216 | 0.0 | 3.0 | 0.00 | 0.01 | 0.00 | 80 | 1018.7 |
| 20260506210019 | 40 | 215 | 0.0 | 2.0 | 0.00 | 0.01 | 0.00 | 81 | 1018.7 |
| 20260506205511 | 40 | 215 | 0.0 | 2.0 | 0.00 | 0.01 | 0.00 | 81 | 1018.9 |
| 20260506205005 | 40 | 215 | 0.0 | 0.0 | 0.00 | 0.01 | 0.00 | 82 | 1018.9 |
| 20260506204459 | 40 | 215 | 0.0 | 1.0 | 0.00 | 0.01 | 0.00 | 82 | 1018.9 |
| 20260506203954 | 40 | 215 | 0.0 | 1.0 | 0.00 | 0.01 | 0.00 | 82 | 1019.0 |
| 20260506203447 | 40 | 215 | 0.0 | 0.0 | 0.00 | 0.01 | 0.00 | 83 | 1019.0 |
| 20260506202941 | 40 | 214 | 0.0 | 0.0 | 0.00 | 0.01 | 0.00 | 83 | 1019.2 |
| 20260506202435 | 40 | 214 | 0.0 | 1.0 | 0.00 | 0.01 | 0.00 | 83 | 1019.2 |
| 20260506201929 | 40 | 214 | 0.0 | 1.0 | 0.00 | 0.01 | 0.00 | 83 | 1019.2 |
| 20260506201424 | 40 | 215 | 0.0 | 1.0 | 0.00 | 0.01 | 0.00 | 83 | 1019.2 |
| 20260506200917 | 40 | 215 | 0.0 | 1.0 | 0.00 | 0.01 | 0.00 | 82 | 1019.2 |
| 20260506195906 | 40 | 215 | 0.0 | 1.0 | 0.00 | 0.01 | 0.00 | 82 | 1019.2 |
| 20260506195400 | 40 | 215 | 0.0 | 1.0 | 0.00 | 0.01 | 0.00 | 82 | 1019.2 |
| 20260506193841 | 40 | 215 | 0.0 | 0.0 | 0.00 | 0.01 | 0.00 | 84 | 1019.4 |
| 20260506193336 | 40 | 215 | 0.0 | 0.0 | 0.00 | 0.01 | 0.00 | 84 | 1019.5 |
| 20260506192829 | 40 | 215 | 0.0 | 0.0 | 0.00 | 0.01 | 0.00 | 84 | 1019.5 |
| 20260506192323 | 40 | 214 | 0.0 | 0.0 | 0.00 | 0.01 | 0.00 | 85 | 1019.5 |
| 20260506191817 | 40 | 214 | 0.0 | 3.0 | 0.00 | 0.01 | 0.00 | 86 | 1019.6 |
| 20260506191311 | 40 | 214 | 0.0 | 3.0 | 0.00 | 0.01 | 0.00 | 86 | 1019.6 |
| 20260506190805 | 40 | 213 | 1.0 | 3.0 | 0.00 | 0.01 | 0.00 | 87 | 1019.6 |
| 20260506190259 | 40 | 95 | 0.0 | 2.0 | 0.00 | 0.01 | 0.00 | 87 | 1019.7 |
| 20260506185248 | 39 | 96 | 0.0 | 2.0 | 0.00 | 0.01 | 0.00 | 88 | 1019.9 |
| 20260506184741 | 38 | 95 | 0.0 | 1.0 | 0.00 | 0.01 | 0.00 | 89 | 1019.9 |
| 20260506184235 | 38 | 95 | 0.0 | 1.0 | 0.00 | 0.01 | 0.00 | 89 | 1020.0 |
| 20260506183728 | 38 | 96 | 0.0 | 1.0 | 0.00 | 0.01 | 0.00 | 89 | 1020.0 |
| 20260506183224 | 37 | 98 | 0.0 | 1.0 | 0.00 | 0.01 | 0.00 | 89 | 1020.0 |
| 20260506182718 | 37 | 0 | 0.0 | 1.0 | 0.00 | 0.01 | 0.00 | 89 | 1020.1 |
| 20260506181707 | 37 | 0 | 0.0 | 1.0 | 0.00 | 0.01 | 0.00 | 90 | 1020.1 |
| 20260506181200 | 37 | 98 | 0.0 | 0.0 | 0.00 | 0.01 | 0.00 | 90 | 1020.1 |
| 20260506180654 | 37 | 98 | 0.0 | 1.0 | 0.00 | 0.01 | 0.00 | 91 | 1020.0 |
| 20260506180148 | 37 | 0 | 0.0 | 2.0 | 0.00 | 0.01 | 0.00 | 91 | 1020.0 |
| 20260506175642 | 36 | 0 | 0.0 | 2.0 | 0.00 | 0.01 | 0.00 | 91 | 1020.0 |
| 20260506175136 | 36 | 95 | 0.0 | 1.0 | 0.00 | 0.01 | 0.00 | 91 | 1020.0 |
| 20260506174630 | 35 | 95 | 0.0 | 2.0 | 0.00 | 0.01 | 0.00 | 91 | 1019.9 |
| 20260506174126 | 35 | 95 | 0.0 | 2.0 | 0.00 | 0.01 | 0.00 | 91 | 1020.0 |
| 20260506173626 | 35 | 95 | 0.0 | 2.0 | 0.00 | 0.01 | 0.00 | 91 | 1020.0 |